Orbital Elements at Epoch 2459000.5 (2020-May-31.0) TDB
Reference: JPL 29 (heliocentric ecliptic J2000)
Element | Value | Uncertainty (1-sigma) | Units |
e | .1578545265368073 | 4.9829e-08 | |
a | 2.724498408045075 | 1.4379e-08 | au |
q | 2.294424001792835 | 1.3286e-07 | au |
i | 6.786815774303847 | 4.6629e-06 | deg |
node | 45.22152871443954 | 3.7506e-05 | deg |
peri | 293.0376997569235 | 4.0203e-05 | deg |
M | 189.203267512187 | 1.8602e-05 | deg |
tp | 2459779.801158332122 (2022-Jul-19.30115833) | 8.8301e-05 | TDB |
period | 1642.586558379167 4.50 | 1.3004e-05 3.56e-08 | d yr |
n | .2191665322984454 | 1.7351e-09 | deg/d |
Q | 3.154572814297315 | 1.6649e-08 | au |
|
| | Orbit Determination Parameters
Additional Information
|